一网星座-0037星 (ONEWEB-0037 )

导读

ONEWEB-0037是英国OneWeb(一网)星座中的低轨通信卫星,于2020年3月21日发射入轨,属于OneWeb第一代组网卫星。该卫星由英国一网公司主导打造,目标是为全球偏远及网络基础设施薄弱区域提供高速互联网接入服务,属于全球低轨卫星互联网建设的重要组成部分,助力OneWeb实现全球宽带覆盖,目前OneWeb已初步完成第一代星座部署,具备了全球服务能力。

基本信息
目录编号:
45440
目录名称:
ONEWEB-0037
国际标识:
2020-020S
轨道中心:
EARTH
卫星名称:
一网星座-0037星
卫星全名:
一网星座-0037星 (ONEWEB-0037 )
卫星状态:
在轨 (已飞行2365 天)
发射日期:
2020-03-21 UTC
国别 :
英国 (GB)
星等 :
--
该卫星已列入 空间交会检测服务 Space Conjunction Data Service (SCDS) ,当前飞行风险评估等级: 无高风险
轨道信息
数据来源 国际轨道数据 AOE轨道数据
星历时间 2026-09-11T13:18:32+0800
6小时前
查看轨道信息
2026-09-05T12:00:00+0800
6天前
查看轨道信息
半长轴 7595.823km 7595.804km
偏心率 0.0001637 0.0001826
轨道倾角 87.898° 87.898°
近地点辐角 103.804° 120.144°
升交点赤经 3.937° 5.137°
平近点角 256.327° 112.268°
近地点 1216.442km 1216.28km
远地点 1218.93km 1219.054km
周期 109.805分钟 109.805分钟
每日圈数 13.114162 13.114211
详细信息
平衡模式:
三轴稳定
覆盖范围:
全球
运营商:
一网卫星公司
运营商所在国:
英国
制造商(研发单位):
一网卫星公司
制造商所在国:
英国
使用方式:
暂无
卫星简介
OneWeb卫星网络由648颗重约125公斤的微型卫星组成,运行在1200公里的轨道上。 每颗卫星都能够提供至少每秒8千兆位的吞吐量,以使用其高吞吐量的Ku频段有效载荷为家庭和移动平台提供互联网接入。该卫星仍在工作。
2D轨道图
3D轨道图
轨道高度分析图
轨道倾角分析图
轨道综合分析图
查看轨道综合分析图
与全量物体交会距离演化趋势
与全量物体交会风险概率演化趋势